Weather reports worldwide

Advertisment
Chania/Souda, Greece (16746): temperature & dewpoint: 30.06.2020 08:00:00 - 06.07.2020 08:00:00 (EEST)Chania/Souda, Greece (16746): wind speed: 30.06.2020 08:00:00 - 06.07.2020 08:00:00 (EEST)Chania/Souda, Greece (16746): wind direction: 30.06.2020 08:00:00 - 06.07.2020 08:00:00 (EEST)Chania/Souda, Greece (16746): reduced air pressure: 30.06.2020 08:00:00 - 06.07.2020 08:00:00 (EEST)Chania/Souda, Greece (16746): visibility: 30.06.2020 08:00:00 - 06.07.2020 08:00:00 (EEST)
Date & Time tt [°C] td [°C] ff [km/h] ff [kn] dd ppp [hPa] vv [km]
06.07.2020 08:00:00 - - - - - - -
06.07.2020 07:00:00 23,0 20,0 0 0 N - 10
06.07.2020 06:00:00 22,8 20,0 0 0 N 1003,5 10
06.07.2020 05:00:00 23,0 21,0 0 0 N - 10
06.07.2020 04:00:00 24,0 21,0 0 0 N - 10
06.07.2020 03:00:00 23,8 21,4 0 0 N 1004,9 10
06.07.2020 02:00:00 24,0 20,0 8 4 WSW - 10
06.07.2020 01:00:00 24,0 23,0 0 0 N - 10
06.07.2020 00:00:00 24,0 22,5 9 5 WNW 1005,9 10
05.07.2020 23:00:00 24,0 23,0 9 5 W - 10
05.07.2020 22:00:00 25,0 23,0 13 7 WNW - 10
05.07.2020 21:00:00 26,6 23,1 16 9 WNW 1005,3 10
05.07.2020 20:00:00 28,0 22,0 13 7 WNW - 10
05.07.2020 19:00:00 29,0 21,0 15 8 W - 10
05.07.2020 18:00:00 30,8 21,0 18 10 WNW 1005,5 10
05.07.2020 17:00:00 32,0 22,0 22 12 W - 10
05.07.2020 16:00:00 32,0 22,0 16 9 W - 10
05.07.2020 15:00:00 31,8 20,8 18 10 WSW 1006,0 10
05.07.2020 14:00:00 32,0 22,0 15 8 NW - 10
05.07.2020 13:00:00 33,0 20,0 18 10 NNE - 10
05.07.2020 12:00:00 32,6 19,7 16 9 NNE 1007,3 10
05.07.2020 11:00:00 32,0 21,0 11 6 NNW - 10
05.07.2020 10:00:00 31,0 21,0 8 4 ENE - 10
05.07.2020 09:00:00 29,0 20,6 0 0 N 1007,0 10
05.07.2020 08:00:00 26,0 20,0 0 0 N - 10
05.07.2020 07:00:00 24,0 20,0 5 3 WNW - 10
05.07.2020 06:00:00 22,8 20,7 5 3 W 1007,9 10
05.07.2020 05:00:00 23,0 21,0 5 3 WNW - 10
05.07.2020 04:00:00 23,0 21,0 8 4 WNW - 10
05.07.2020 03:00:00 23,4 19,4 9 5 WNW 1009,1 10
05.07.2020 02:00:00 24,0 20,0 0 0 N - 10
05.07.2020 01:00:00 25,0 20,0 0 0 N - 10
05.07.2020 00:00:00 25,2 20,3 0 0 N 1009,3 10
04.07.2020 23:00:00 26,0 22,0 0 0 N - 10
04.07.2020 22:00:00 27,0 23,0 0 0 N - 10
04.07.2020 21:00:00 28,0 22,4 0 0 N 1009,0 10
04.07.2020 20:00:00 30,0 21,0 8 4 ENE - 10
04.07.2020 19:00:00 31,0 21,0 13 7 ENE - 10
04.07.2020 18:00:00 32,4 22,2 16 9 ENE 1008,7 10
04.07.2020 17:00:00 33,0 20,0 16 9 ENE - 10
04.07.2020 16:00:00 33,0 19,0 22 12 NE - 10
04.07.2020 15:00:00 33,6 20,2 21 11 NE 1009,1 10
04.07.2020 14:00:00 33,0 19,0 9 5 NNW - 10
04.07.2020 13:00:00 33,0 20,0 11 6 NNW - 10
04.07.2020 12:00:00 33,0 18,7 9 5 NNW 1009,6 10
04.07.2020 11:00:00 32,0 21,0 9 5 S - 10
04.07.2020 10:00:00 31,0 20,0 8 4 E - 10
04.07.2020 09:00:00 28,2 18,6 0 0 N 1009,5 10
04.07.2020 08:00:00 26,0 18,0 0 0 N - 10
04.07.2020 07:00:00 22,0 20,0 0 0 N - 10
04.07.2020 06:00:00 22,0 19,2 0 0 N 1008,9 10
04.07.2020 05:00:00 22,0 19,0 5 3 - - 10
04.07.2020 04:00:00 22,0 21,0 5 3 - - 10
04.07.2020 03:00:00 23,0 21,5 5 3 - 1009,0 10
04.07.2020 02:00:00 24,0 23,0 8 4 WNW - 10
04.07.2020 01:00:00 24,0 23,0 8 4 WNW - 10
04.07.2020 00:00:00 24,0 22,5 9 5 NW 1009,3 10
03.07.2020 23:00:00 25,0 22,0 9 5 WNW - 10
03.07.2020 22:00:00 25,0 23,0 9 5 WNW - 10
03.07.2020 21:00:00 26,6 22,5 8 4 WNW 1007,6 10
03.07.2020 20:00:00 28,0 22,0 5 3 - - 10
03.07.2020 19:00:00 29,0 22,0 11 6 NW - 10
03.07.2020 18:00:00 30,0 22,1 18 10 WNW 1007,1 10
03.07.2020 17:00:00 30,0 21,0 18 10 NW - 10
03.07.2020 16:00:00 30,0 21,0 18 10 WNW - 10
03.07.2020 15:00:00 31,0 20,9 18 10 WNW 1007,3 10
03.07.2020 14:00:00 32,0 21,0 13 7 W - 10
03.07.2020 13:00:00 32,0 21,0 0 0 N - 10
03.07.2020 12:00:00 31,2 20,8 9 5 W 1007,3 10
03.07.2020 11:00:00 30,0 21,0 9 5 NNW - 10
03.07.2020 10:00:00 29,0 20,0 5 3 - - 10
03.07.2020 09:00:00 27,0 21,0 8 4 NW 1007,5 10
03.07.2020 08:00:00 25,0 22,0 5 3 - - 10
03.07.2020 07:00:00 22,0 20,0 0 0 N - 10
03.07.2020 06:00:00 22,0 18,8 0 0 N 1007,0 10
03.07.2020 05:00:00 22,0 19,0 8 4 W - 10
03.07.2020 04:00:00 23,0 20,0 8 4 WNW - 10
03.07.2020 03:00:00 22,6 20,8 11 6 WNW 1007,1 10
03.07.2020 02:00:00 23,0 22,0 9 5 NW - 10
03.07.2020 01:00:00 24,0 22,0 8 4 NW - 10
03.07.2020 00:00:00 24,2 21,8 8 4 NW 1008,0 10
02.07.2020 23:00:00 25,0 21,0 0 0 N - 10
02.07.2020 22:00:00 27,0 21,0 8 4 WNW - 10
02.07.2020 21:00:00 28,4 22,6 5 3 - 1007,3 10
02.07.2020 20:00:00 29,0 22,0 8 4 W - 10
02.07.2020 19:00:00 30,0 20,0 11 6 NW - 10
02.07.2020 18:00:00 30,8 20,2 18 10 NW 1007,3 10
02.07.2020 17:00:00 31,0 20,0 15 8 NW - 10
02.07.2020 16:00:00 32,0 20,0 16 9 NW - 10
02.07.2020 15:00:00 32,2 20,3 16 9 NNW 1007,6 10
02.07.2020 14:00:00 32,0 19,0 16 9 WNW - 10
02.07.2020 13:00:00 32,0 20,0 15 8 W - 10
02.07.2020 12:00:00 32,4 19,8 13 7 N 1007,8 10
02.07.2020 11:00:00 31,0 19,0 8 4 NNW - 10
02.07.2020 10:00:00 30,0 20,0 0 0 N - 10
02.07.2020 09:00:00 28,4 19,9 0 0 N 1008,5 10
02.07.2020 08:00:00 26,0 20,0 0 0 N - 10
02.07.2020 07:00:00 23,0 21,0 0 0 N - 10
02.07.2020 06:00:00 23,0 20,2 8 4 WNW 1008,2 10
02.07.2020 05:00:00 23,0 22,0 8 4 W - 10
02.07.2020 04:00:00 23,0 22,0 11 6 NW - 10
02.07.2020 03:00:00 23,2 21,7 11 6 WNW 1008,6 10
02.07.2020 02:00:00 25,0 18,0 8 4 WNW - 10
02.07.2020 01:00:00 26,0 18,0 8 4 W - 10
02.07.2020 00:00:00 25,8 17,9 0 0 N 1009,0 10
01.07.2020 23:00:00 27,0 19,0 0 0 N - 10
01.07.2020 22:00:00 28,0 18,0 0 0 N - 10
01.07.2020 21:00:00 28,6 19,8 0 0 N 1008,5 10
01.07.2020 20:00:00 30,0 19,0 9 5 NE - 10
01.07.2020 19:00:00 32,0 18,0 8 4 NNE - 10
01.07.2020 18:00:00 32,8 18,4 9 5 NE 1008,3 10
01.07.2020 17:00:00 33,0 19,0 11 6 NE - 10
01.07.2020 16:00:00 33,0 18,0 11 6 E - 10
01.07.2020 15:00:00 33,0 18,7 9 5 N 1009,4 10
01.07.2020 14:00:00 33,0 19,0 18 10 NNE - 10
01.07.2020 13:00:00 33,0 19,0 18 10 NNW - 10
01.07.2020 12:00:00 32,6 17,0 15 8 NNW 1009,4 10
01.07.2020 11:00:00 32,0 18,0 18 10 NNW - 10
01.07.2020 10:00:00 31,0 19,0 15 8 NW - 10
01.07.2020 09:00:00 29,0 17,0 11 6 NW 1009,0 10
01.07.2020 08:00:00 26,0 19,0 8 4 WNW - 10
01.07.2020 07:00:00 24,0 17,0 8 4 W - 10
01.07.2020 06:00:00 23,0 15,0 0 0 N 1008,9 10
01.07.2020 05:00:00 24,0 16,0 0 0 N - 10
01.07.2020 04:00:00 25,0 17,0 0 0 N - 10
01.07.2020 03:00:00 24,8 16,8 8 4 W 1009,3 10
01.07.2020 02:00:00 25,0 17,0 8 4 W - 10
01.07.2020 01:00:00 25,0 17,0 0 0 N - 10
01.07.2020 00:00:00 25,0 19,1 8 4 W 1009,8 10
30.06.2020 23:00:00 25,0 20,0 8 4 W - 10
30.06.2020 22:00:00 25,0 21,0 11 6 WNW - 10
30.06.2020 21:00:00 27,0 17,9 8 4 WNW 1008,9 10
30.06.2020 20:00:00 30,0 18,0 8 4 NW - 10
30.06.2020 19:00:00 30,0 18,0 11 6 WNW - 10
30.06.2020 18:00:00 31,6 17,3 15 8 W 1008,6 10
30.06.2020 17:00:00 32,0 18,0 18 10 W - 10
30.06.2020 16:00:00 32,0 18,0 18 10 WNW - 10
30.06.2020 15:00:00 32,2 18,0 22 12 WNW 1008,9 10
30.06.2020 14:00:00 32,0 18,0 11 6 NNW - 10
30.06.2020 13:00:00 33,0 18,0 9 5 NW - 10
30.06.2020 12:00:00 32,0 17,0 11 6 N 1009,0 10
30.06.2020 11:00:00 31,0 16,0 9 5 NNW - 10
30.06.2020 10:00:00 29,0 20,0 0 0 N - 10
30.06.2020 09:00:00 28,4 19,6 8 4 NW 1008,9 10
30.06.2020 08:00:00 26,0 18,0 9 5 NW - 10

tt = temperature
td = dewpoint
ff = wind speed
dd = wind direction
ppp = reduced air pressure
vv = visibility

Next stations